Location: Kimberly
(42.5380°N, 114.3640°W)
Time: 01:22:15
(UTC-07:00)

BlueWalker 3 - Visible Passes

Search period start: 11 November 2024 00:00
Search period end: 21 November 2024 00:00
Orbit: 470 x 481 km, 53.2° (Epoch: 10 November)

Date Brightness Start Highest point End Pass type
(mag) Time Alt. Az. Time Alt. Az. Time Alt. Az.
11 Nov 4.0 18:12:28 10° NW 18:14:48 16° N 18:17:08 10° NE visible
11 Nov 4.7 19:50:52 10° NW 19:51:16 12° NNW 19:51:16 12° NNW visible
12 Nov 3.9 17:42:52 10° NW 17:45:15 16° N 17:47:37 10° NE visible
12 Nov 4.0 19:21:24 10° NW 19:22:55 17° NNW 19:22:55 17° NNW visible
13 Nov 3.6 18:51:54 10° NNW 18:54:34 19° NNE 18:54:34 19° NNE visible
14 Nov 3.6 18:22:20 10° NNW 18:25:00 18° NNE 18:26:13 16° NE visible
14 Nov 4.8 19:59:54 10° NW 20:00:20 13° NW 20:00:20 13° NW visible
15 Nov 3.7 17:52:44 10° NNW 17:55:19 18° N 17:57:53 10° NE visible
15 Nov 3.7 19:30:19 10° NW 19:32:00 24° NNW 19:32:00 24° NNW visible
16 Nov 2.5 19:00:41 10° NW 19:03:44 40° N 19:03:44 40° N visible
17 Nov 2.4 18:31:01 10° NW 18:34:29 38° NNE 18:35:32 30° ENE visible
17 Nov 4.9 20:08:59 10° WNW 20:09:39 14° WNW 20:09:39 14° WNW visible
18 Nov 2.6 18:01:18 10° NW 18:04:42 34° NNE 18:07:27 14° E visible
18 Nov 3.6 19:39:10 10° WNW 19:41:35 31° W 19:41:35 31° W visible
19 Nov 2.7 19:09:19 10° WNW 19:12:51 45° SW 19:13:41 38° S visible
20 Nov 2.5 18:39:26 10° WNW 18:43:03 54° SW 18:46:03 14° SSE visible
